Volver al catálogo

COSMOS 1470

ActivoMilitarPO
NORAD 14147·PAYLOAD·🇷🇺 Russia

Lanzado Jun 23, 1983 desde Plesetsk Cosmodrome

Loading…

Próximos Pases (próximas 24 horas)

TLE

ActualizadoSource: Space-Track

Época: Sep 14, 2026, 15:05 UTC

1 14147U 83061A   26257.62873211  .00014806  00000-0  26237-3 0  9999
2 14147  82.4628 280.6135 0007409  52.2712 307.9210 15.50087091116942

Sigue COSMOS 1470 en tiempo real con AllMySat

Download on the App Store